Location: Buisson
(44.2787°N, 4.9969°E)
Time: 01:36:37
(UTC+00:00)

IDEFIX/ARIANE 42P - Pass Details

Date: 18 April 2021
Orbit: 785 x 803 km, 98.4° (Epoch: 07 May)

Event Time Altitude Azimuth Distance (km) Brightness Sun altitude
Rises 03:15:33 0° 6° (N) 3,294 6.4 -16.3°
Reaches altitude 10° 03:17:59 10° 359° (N) 2,363 5.5 -16.0°
Maximum altitude 03:22:47 39° 292° (WNW) 1,179 3.2 -15.2°
Enters shadow 03:25:29 23° 239° (WSW) 1,647 3.6 -14.8°
